Change the Weather History Date:

Sunday, February 16, 2014

  Actual Average Record
Temperature  
Mean Temperature 6 °F -  
Max Temperature 18 °F 27 °F 51 °F (2011)
Min Temperature -7 °F 8 °F -16 °F (2003)
Degree Days  
Heating Degree Days 60    
Moisture  
Dew Point 2 °F    
Average Humidity 72    
Maximum Humidity 89    
Minimum Humidity 52    
Precipitation  
Precipitation 0.02 in - - ()
Sea Level Pressure  
Sea Level Pressure 30.09 in    
Wind  
Wind Speed 5 mph (ENE)    
Max Wind Speed 12 mph    
Max Gust Speed 18 mph    
Visibility 10 miles    
Events Snow    
Averages and records for this station are not official NWS values.
T = Trace of Precipitation, MM = Missing Value Source: NWS Daily Summary

Daily Weather History Graph

Daily Weather History Graph

Search for Another Location

Airport or City:

Trip Planner

Search our weather history database for the weather conditions in past years. The results will help you decide how hot, cold, wet, or windy it might be!

Date:

Astronomy

Feb. 16, 2014 Rise Set
Actual Time 7:02 AM CST 5:29 PM CST
Civil Twilight 6:31 AM CST 6:00 PM CST
Nautical Twilight 5:56 AM CST 6:35 PM CST
Astronomical Twilight 5:22 AM CST 7:09 PM CST
Moon 7:35 PM CST (2/16) 7:24 AM CST (2/16)
Length of Visible Light 11h 28m
Length of Day
10h 27m
Full, 97% of the Moon is Illuminated
Feb 16
Full
Feb 22
Last Quarter
Mar 1
New
Mar 8
First Quarter
Mar 16
Full

Hourly Weather History & Observations

Time (CST) Temp. Windchill Dew Point Humidity Pressure Visibility Wind Dir Wind Speed Gust Speed Precip Events Conditions
12:15 AM 12.6 °F 3.4 °F 9.9 °F 89% 29.91 in 4.0 mi NNW 5.8 mph - N/A Snow Light Snow
12:35 AM 12.2 °F 2.9 °F 9.1 °F 88% 29.92 in 7.0 mi NNW 5.8 mph - N/A Snow Light Snow
12:55 AM 12.0 °F 2.7 °F 8.6 °F 86% 29.94 in 7.0 mi NW 5.8 mph - N/A Snow Light Snow
1:15 AM 11.3 °F 1.9 °F 7.7 °F 85% 29.95 in 7.0 mi NW 5.8 mph - N/A Snow Light Snow
1:35 AM 10.2 °F -0.6 °F 6.8 °F 86% 29.95 in 7.0 mi NNW 6.9 mph - N/A Snow Light Snow
1:55 AM 9.5 °F -0.3 °F 5.9 °F 85% 29.96 in 7.0 mi NNW 5.8 mph - N/A Snow Light Snow
2:15 AM 8.6 °F -5.5 °F 4.8 °F 85% 29.96 in 10.0 mi NNW 10.4 mph - N/A   Overcast
2:35 AM 8.2 °F -3.0 °F 4.1 °F 83% 29.97 in 10.0 mi North 6.9 mph - N/A   Overcast
2:55 AM 7.0 °F -5.7 °F 3.2 °F 84% 29.96 in 10.0 mi North 8.1 mph - N/A Snow Light Snow
3:15 AM 6.3 °F -7.5 °F 2.1 °F 83% 29.97 in 10.0 mi North 9.2 mph - N/A   Scattered Clouds
3:35 AM 5.5 °F -7.4 °F 1.8 °F 84% 29.97 in 10.0 mi North 8.1 mph - N/A   Clear
3:55 AM 4.5 °F -6.3 °F 0.7 °F 84% 29.99 in 10.0 mi North 5.8 mph - N/A   Clear
4:15 AM 3.7 °F -5.5 °F 0.1 °F 85% 30.00 in 10.0 mi North 4.6 mph - N/A   Clear
4:35 AM 2.5 °F -7.0 °F -0.8 °F 86% 30.01 in 10.0 mi North 4.6 mph - N/A   Clear
4:55 AM -2.0 °F -15.4 °F -4.9 °F 88% 30.02 in 10.0 mi NNE 6.9 mph - N/A   Clear
5:15 AM -2.2 °F -14.2 °F -5.1 °F 88% 30.02 in 10.0 mi NNE 5.8 mph - N/A   Clear
5:35 AM 0.1 °F -9.7 °F -3.1 °F 86% 30.04 in 10.0 mi North 4.6 mph - N/A   Clear
5:55 AM 0.9 °F -8.9 °F -2.4 °F 86% 30.05 in 10.0 mi North 4.6 mph - N/A   Clear
6:15 AM -0.9 °F -8.9 °F -3.6 °F 88% 30.06 in 10.0 mi North 3.5 mph - N/A   Clear
6:35 AM -1.1 °F -9.1 °F -4.4 °F 86% 30.09 in 10.0 mi North 3.5 mph - N/A   Clear
6:55 AM -2.7 °F - -5.8 °F 87% 30.10 in 10.0 mi Calm Calm - N/A   Clear
7:15 AM -4.7 °F - -8.0 °F 86% 30.11 in 10.0 mi Calm Calm - N/A   Clear
7:35 AM -7.2 °F -16.1 °F -10.3 °F 87% 30.11 in 10.0 mi North 3.5 mph - N/A   Clear
7:55 AM -3.8 °F -16.1 °F -6.7 °F 87% 30.12 in 10.0 mi NNE 5.8 mph - N/A   Clear
8:15 AM -3.6 °F -12.0 °F -6.7 °F 87% 30.12 in 10.0 mi NNE 3.5 mph - N/A   Clear
8:35 AM -1.7 °F -13.5 °F -4.9 °F 86% 30.13 in 10.0 mi NNE 5.8 mph - N/A   Clear
8:55 AM 1.2 °F -11.5 °F -2.6 °F 84% 30.12 in 10.0 mi NNE 6.9 mph - N/A   Clear
9:15 AM 5.0 °F -6.9 °F 0.5 °F 82% 30.13 in 10.0 mi ENE 6.9 mph - N/A   Clear
9:35 AM 6.6 °F -8.8 °F 1.0 °F 78% 30.14 in 10.0 mi ENE 11.5 mph - N/A   Clear
9:55 AM 7.7 °F -4.8 °F 0.7 °F 73% 30.16 in 10.0 mi ENE 8.1 mph - N/A   Clear
10:15 AM 8.6 °F -1.3 °F 1.2 °F 72% 30.17 in 10.0 mi NE 5.8 mph - N/A   Clear
10:35 AM 9.9 °F 1.6 °F 1.6 °F 69% 30.17 in 10.0 mi NNE 4.6 mph - N/A   Clear
10:55 AM 10.9 °F - 1.8 °F 67% 30.17 in 10.0 mi Calm Calm - N/A   Clear
11:15 AM 12.0 °F - 2.1 °F 65% 30.17 in 10.0 mi Calm Calm - N/A   Clear
11:35 AM 13.1 °F 7.1 °F 2.1 °F 62% 30.17 in 10.0 mi ENE 3.5 mph - N/A   Clear
11:55 AM 13.6 °F - 2.3 °F 61% 30.16 in 10.0 mi Calm Calm - N/A   Clear
12:20 PM 14.4 °F - 2.7 °F 60% 30.16 in 10.0 mi Calm Calm - N/A   Clear
12:35 PM 15.1 °F - 3.0 °F 59% 30.15 in 10.0 mi Calm Calm - N/A   Clear
12:55 PM 15.8 °F - 3.6 °F 59% 30.15 in 10.0 mi Calm Calm - N/A   Clear
1:15 PM 16.3 °F 7.8 °F 3.9 °F 58% 30.14 in 10.0 mi SSW 5.8 mph - N/A   Clear
1:35 PM 16.7 °F - 4.5 °F 59% 30.14 in 10.0 mi Calm Calm - N/A   Clear
1:55 PM 17.6 °F - 3.7 °F 55% 30.14 in 10.0 mi Calm Calm - N/A   Clear
2:15 PM 18.3 °F 13.1 °F 3.6 °F 53% 30.13 in 10.0 mi SSE 3.5 mph - N/A   Clear
2:35 PM 18.3 °F 13.1 °F 4.3 °F 54% 30.13 in 10.0 mi SE 3.5 mph - N/A   Clear
2:55 PM 18.9 °F 13.7 °F 4.3 °F 53% 30.13 in 10.0 mi SE 3.5 mph - N/A   Clear
3:15 PM 18.5 °F 13.3 °F 3.7 °F 53% 30.13 in 10.0 mi SSE 3.5 mph - N/A   Clear
3:35 PM 18.9 °F - 3.7 °F 52% 30.13 in 10.0 mi Calm Calm - N/A   Clear
3:55 PM 18.7 °F 13.5 °F 3.9 °F 53% 30.13 in 10.0 mi SE 3.5 mph - N/A   Clear
4:15 PM 18.3 °F 11.5 °F 3.9 °F 53% 30.13 in 10.0 mi ESE 4.6 mph - N/A   Clear
4:35 PM 17.6 °F 12.3 °F 4.1 °F 56% 30.13 in 10.0 mi SSE 3.5 mph - N/A   Clear
5:00 PM 16.7 °F 9.6 °F 4.1 °F 58% 30.13 in 10.0 mi ESE 4.6 mph - N/A   Clear
5:15 PM 16.5 °F 9.4 °F 4.1 °F 58% 30.13 in 10.0 mi East 4.6 mph - N/A   Clear
5:35 PM 15.8 °F 8.6 °F 4.1 °F 60% 30.13 in 10.0 mi East 4.6 mph - N/A   Clear
5:55 PM 14.5 °F 5.7 °F 3.7 °F 62% 30.12 in 10.0 mi East 5.8 mph - N/A   Clear
6:15 PM 14.0 °F 8.2 °F 4.1 °F 65% 30.13 in 10.0 mi ESE 3.5 mph - N/A   Clear
6:35 PM 13.3 °F 7.3 °F 3.7 °F 66% 30.13 in 10.0 mi SE 3.5 mph - N/A   Clear
6:55 PM 12.4 °F 6.3 °F 3.9 °F 69% 30.12 in 10.0 mi ESE 3.5 mph - N/A   Clear
7:15 PM 12.6 °F 6.5 °F 4.1 °F 69% 30.12 in 10.0 mi SE 3.5 mph - N/A   Clear
7:35 PM 12.7 °F 5.0 °F 4.3 °F 69% 30.13 in 10.0 mi SE 4.6 mph - N/A   Clear
7:55 PM 13.8 °F 4.9 °F 4.8 °F 67% 30.12 in 10.0 mi SSE 5.8 mph - N/A   Clear
8:15 PM 14.2 °F 6.7 °F 4.8 °F 66% 30.12 in 10.0 mi SE 4.6 mph - N/A   Clear
8:35 PM 14.0 °F 6.5 °F 4.8 °F 67% 30.11 in 10.0 mi SE 4.6 mph - N/A   Clear
8:55 PM 14.0 °F 5.1 °F 4.8 °F 67% 30.11 in 10.0 mi SSE 5.8 mph - N/A   Clear
9:15 PM 14.0 °F 2.9 °F 5.0 °F 67% 30.11 in 10.0 mi South 8.1 mph - N/A   Clear
9:40 PM 14.0 °F 2.9 °F 5.5 °F 69% 30.11 in 10.0 mi SSE 8.1 mph - N/A   Clear
9:55 PM 13.6 °F 3.5 °F 5.4 °F 70% 30.11 in 10.0 mi SSE 6.9 mph - N/A   Clear
10:15 PM 12.7 °F 0.4 °F 5.0 °F 71% 30.10 in 10.0 mi SSE 9.2 mph - N/A   Scattered Clouds
10:35 PM 12.7 °F 0.4 °F 5.2 °F 72% 30.10 in 10.0 mi SE 9.2 mph - N/A   Mostly Cloudy
10:55 PM 12.6 °F -1.4 °F 5.0 °F 72% 30.11 in 10.0 mi SSE 11.5 mph 17.3 mph N/A   Scattered Clouds
11:15 PM 12.2 °F -1.0 °F 4.8 °F 72% 30.11 in 10.0 mi SSE 10.4 mph - N/A   Scattered Clouds
11:35 PM 12.2 °F -1.8 °F 4.6 °F 72% 30.10 in 10.0 mi SSE 11.5 mph - N/A   Scattered Clouds
11:55 PM 12.2 °F -0.2 °F 4.1 °F 70% 30.10 in 10.0 mi SSE 9.2 mph 18.4 mph N/A   Scattered Clouds